Wind_Speed
3 2 1 0 1 2 3 4 6 6 7 8 8 8 8 7 7 6 6 6 5 6 5 5 4 5 4 5 5 6 6 5 5 4 3 3 2 2 2 3 3 2 2
3 3 2 2 1 2 3 3 5 6 7 7 8 8 7 6 6 6 6 6 5 5 4 4 4 4 4 4 5 5 4 4 4 3 3 3 2 2 2 3 3 3 2
4 4 3 3 3 3 4 4 5 6 6 7 7 7 7 5 5 6 6 6 5 5 4 4 4 4 4 4 4 4 4 3 3 2 3 3 3 3 3 3 3 3 3
4 4 4 4 4 4 5 5 5 6 6 6 7 7 6 5 5 6 6 6 5 5 5 5 4 3 3 4 3 3 3 3 2 1 1 2 3 3 3 3 4 3 4
5 4 4 4 5 5 5 5 6 6 6 6 6 6 6 6 5 6 6 5 5 4 4 5 4 4 3 3 3 3 3 2 2 1 1 2 2 3 3 3 3 3 4
6 5 5 4 5 6 6 5 6 5 6 6 6 6 6 6 6 6 5 5 4 4 4 4 3 3 3 2 2 2 2 2 2 1 1 2 3 3 2 2 3 3 3
7 6 6 6 5 5 4 3 4 5 6 6 6 5 5 5 6 6 5 4 4 3 2 2 2 2 1 2 3 3 2 2 1 1 1 2 2 1 1 2 2 2 3
6 6 6 6 6 5 5 4 5 5 6 6 6 5 4 6 6 5 5 3 3 3 1 1 1 2 2 2 3 3 2 2 1 1 2 2 1 2 2 2 3 3 3
6 6 6 6 6 6 5 5 5 5 5 6 5 5 4 5 4 4 3 3 1 1 1 1 2 2 2 3 3 2 1 1 2 3 3 2 2 3 3 4 4 4 4
6 6 6 6 5 6 5 4 4 5 5 5 5 5 4 3 3 2 2 2 1 1 1 1 1 1 1 3 1 1 2 2 3 3 3 3 3 3 4 4 5 5 5
6 6 6 6 5 5 5 4 4 4 4 5 4 4 3 3 2 1 1 1 1 1 1 1 1 1 1 1 0 0 1 2 2 2 3 4 5 5 5 5 5 5 5
6 6 6 6 6 5 5 4 4 4 4 4 3 3 2 2 1 0 1 2 1 1 0 0 1 1 2 1 1 1 1 2 2 3 4 5 6 5 6 6 6 6 6
7 7 7 6 6 6 5 5 4 4 4 3 2 2 1 1 1 0 0 1 1 1 1 1 2 2 2 3 2 2 3 3 3 4 5 6 6 6 7 7 7 6 6
7 7 7 6 6 5 5 5 4 4 4 3 2 2 1 0 1 1 0 1 1 1 2 3 3 3 3 4 4 5 5 5 5 5 5 6 6 7 7 8 7 7 6
8 7 7 7 6 6 5 5 4 3 3 2 2 2 1 0 0 1 1 1 2 2 3 4 4 5 5 5 6 6 6 7 7 7 7 7 8 8 8 8 6 6 6
7 7 7 6 6 6 6 5 5 4 3 3 2 1 1 1 1 2 2 2 3 3 4 5 6 6 6 6 7 7 7 7 7 7 8 8 9 9 9 8 7 6 6
7 7 7 6 6 6 6 6 5 5 4 3 3 2 1 1 2 2 2 3 3 4 4 5 5 6 7 7 8 8 7 8 8 9 9 9 9 9 9 8 7 7 6
6 6 6 6 6 6 6 6 5 5 5 4 4 3 3 3 3 2 3 3 3 4 5 5 5 6 7 8 8 8 8 9 9 9 9 9 9 9 9 8 8 8 9
6 6 6 6 6 6 6 5 5 5 5 4 4 4 3 3 3 3 3 3 4 5 6 6 6 7 8 8 9 9 9 9 9 9 10 10 11 10 10 10 9 10 10
6 6 6 6 6 7 7 6 6 5 5 5 5 5 4 4 4 4 4 4 5 6 6 7 7 8 8 9 9 9 10 10 10 9 10 11 12 12 11 11 11 11 11
5 5 6 7 6 7 7 7 6 6 5 5 6 6 6 5 5 4 4 5 6 6 6 6 7 7 8 9 9 9 10 10 10 10 10 11 11 12 12 11 11 12 12
5 6 6 6 7 7 7 7 6 6 6 6 6 6 6 6 5 6 6 5 6 6 7 7 7 8 8 8 9 9 9 10 10 10 10 11 12 12 12 11 12 13 13
6 5 5 6 7 7 7 7 7 7 6 6 6 7 7 7 6 6 7 7 7 7 7 7 8 9 9 9 10 10 10 10 11 11 11 12 12 12 12 12 12 12 13
6 5 5 5 6 7 7 7 7 7 7 7 7 7 7 7 7 7 7 8 8 8 8 8 9 9 10 9 10 11 12 12 12 12 12 12 12 12 12 12 12 13 13
7 6 5 6 6 7 7 8 8 8 8 9 8 7 8 8 7 7 8 8 8 9 9 10 10 10 10 10 11 12 12 13 13 13 12 12 13 13 12 12 13 13 13
7 6 7 7 7 8 9 9 9 9 9 10 9 9 9 9 8 8 9 9 9 9 10 10 10 10 11 11 12 12 13 13 13 13 13 13 13 13 13 13 14 14 14
Wind_Direction
59 61 44 230 163 158 162 160 165 161 166 166 166 162 160 162 164 163 166 167 163 164 162 156 138 132 135 133 139 150 158 169 170 171 181 171 185 207 217 223 225 234 230
54 56 65 73 109 142 156 155 163 162 162 165 166 163 166 164 164 158 160 163 168 166 167 159 134 130 131 135 128 133 148 157 169 176 185 183 217 245 243 239 232 237 254
50 55 70 82 94 106 126 155 155 161 162 160 162 164 165 161 161 159 157 161 165 159 158 153 140 133 134 132 128 133 142 160 165 169 187 200 229 249 252 250 242 249 261
47 52 71 83 92 107 123 141 149 160 166 163 158 160 162 161 162 166 164 166 163 153 147 140 133 124 123 130 137 141 141 150 152 161 201 217 229 243 243 251 247 259 261
55 57 79 82 89 98 119 131 145 163 166 162 161 167 169 173 175 167 168 166 157 141 125 125 123 126 121 137 152 153 152 159 149 148 248 251 261 259 255 261 256 261 263
59 63 74 77 89 91 108 129 144 157 166 165 169 170 167 173 179 169 157 155 155 140 131 126 131 138 143 165 188 182 182 170 160 183 261 272 278 278 269 277 278 275 278
59 67 77 75 75 77 81 95 126 150 166 172 169 163 168 177 174 167 161 157 153 142 131 129 140 157 171 176 183 193 214 199 211 249 302 290 280 267 302 310 309 311 303
55 58 62 64 61 63 63 74 97 121 138 153 161 162 167 174 168 166 168 165 159 159 143 136 169 174 180 180 183 193 191 212 233 322 321 310 280 308 315 312 315 307 306
51 53 57 58 61 66 70 80 85 96 118 136 144 150 157 161 162 165 171 163 160 189 204 180 202 200 193 183 175 180 217 256 287 310 299 289 291 307 307 308 299 294 297
46 52 52 60 65 68 73 84 96 104 115 126 136 145 157 166 171 176 185 181 186 205 209 229 226 197 184 188 219 227 256 282 298 296 299 306 302 302 305 303 298 295 293
44 48 44 61 68 70 74 83 102 113 115 123 134 143 144 145 152 176 216 214 180 195 242 254 235 236 232 216 216 306 297 293 302 306 296 307 305 300 302 306 303 296 295
45 46 44 51 61 62 58 67 91 106 117 123 127 139 137 139 160 189 243 234 210 211 233 309 308 270 264 263 267 299 299 308 307 307 304 302 308 306 306 309 304 295 290
46 46 46 46 51 54 56 56 64 78 90 91 95 125 164 205 170 272 61 202 199 218 274 302 308 288 279 280 281 289 283 303 309 297 298 302 305 312 310 309 300 290 280
46 42 40 37 41 46 48 53 55 64 71 72 71 74 93 349 251 218 221 191 219 247 282 294 306 300 295 295 294 295 298 307 309 295 301 312 314 314 312 308 299 296 284
43 40 36 33 37 34 32 37 45 47 56 59 66 76 67 42 183 228 275 260 259 270 286 288 298 308 304 305 308 305 302 300 309 306 307 315 313 312 311 309 300 294 284
35 35 33 31 32 28 28 29 29 32 44 47 56 59 284 260 298 284 276 278 279 285 298 298 296 305 304 301 304 310 309 306 305 302 305 309 312 310 311 313 305 297 288
29 28 26 26 25 24 26 26 23 21 21 28 32 29 10 354 336 300 278 281 288 292 299 297 297 303 309 304 305 306 303 301 299 297 302 301 302 306 308 308 305 299 292
23 22 21 21 18 20 22 19 16 12 8 7 14 21 17 353 349 321 299 304 299 298 296 296 296 301 305 302 301 302 303 299 298 299 302 304 302 303 302 302 298 294 291
14 14 12 12 13 12 10 10 5 2 5 4 4 2 354 344 343 322 310 306 308 305 297 294 293 294 298 299 297 298 300 298 297 298 299 305 305 301 299 300 298 297 293
13 13 10 6 6 7 9 10 6 4 10 11 8 359 345 334 328 326 309 310 307 310 301 296 298 297 297 298 299 300 299 298 299 297 300 307 308 307 301 298 298 299 298
0 4 5 3 3 5 4 5 7 4 4 5 2 0 357 347 333 333 322 307 304 313 314 307 305 301 295 296 301 304 305 305 302 302 304 308 309 308 306 302 299 299 299
344 348 353 355 355 354 355 358 360 354 350 355 1 1 359 351 345 340 342 329 317 315 319 315 311 307 300 301 303 306 309 310 312 311 312 309 307 308 304 302 300 302 301
330 337 344 347 346 346 347 351 351 351 349 348 350 353 353 348 340 338 347 337 329 320 321 318 316 314 310 307 306 308 310 307 305 309 311 313 313 310 305 306 306 304 302
320 325 332 335 338 338 341 341 341 341 341 340 339 342 343 339 336 333 338 337 332 326 322 324 319 316 313 310 309 311 310 306 304 304 308 314 314 313 310 306 305 304 304
311 311 315 319 326 327 328 330 331 334 333 331 332 336 335 331 334 335 334 332 323 322 323 323 323 321 316 314 313 314 315 314 311 310 308 311 312 311 309 304 303 304 305
296 299 303 306 313 315 317 319 320 323 325 327 329 328 323 322 328 331 330 327 321 318 318 319 320 321 318 316 317 319 323 322 317 313 310 309 310 310 311 308 306 304 304
Height
5873 5872 5872 5871 5871 5871 5871 5871 5872 5873 5874 5875 5876 5877 5878 5879 5880 5881 5882 5883 5884 5884 5885 5885 5885 5886 5886 5885 5884 5885 5887 5889 5891 5892 5893 5894 5895 5896 5896 5896 5897 5897 5898
5874 5873 5872 5871 5871 5871 5870 5871 5872 5873 5875 5876 5877 5878 5879 5880 5881 5882 5882 5883 5884 5885 5885 5886 5886 5887 5887 5887 5887 5888 5889 5890 5892 5893 5894 5894 5895 5896 5896 5896 5897 5897 5898
5874 5873 5873 5872 5871 5870 5870 5871 5872 5874 5875 5877 5878 5879 5880 5881 5881 5882 5883 5884 5885 5885 5886 5887 5887 5887 5888 5888 5889 5890 5891 5891 5892 5893 5894 5894 5895 5895 5896 5896 5897 5897 5898
5875 5874 5874 5873 5872 5871 5871 5872 5873 5875 5876 5877 5878 5879 5880 5881 5882 5883 5884 5885 5886 5886 5887 5888 5888 5889 5889 5890 5890 5891 5891 5892 5893 5894 5894 5894 5895 5895 5896 5896 5897 5897 5897
5876 5876 5875 5875 5874 5873 5873 5873 5873 5875 5876 5878 5879 5880 5881 5882 5883 5884 5884 5885 5886 5887 5888 5888 5889 5890 5890 5890 5891 5892 5892 5893 5894 5894 5894 5894 5894 5895 5895 5896 5896 5896 5897
5877 5877 5876 5876 5875 5874 5874 5874 5874 5875 5876 5878 5879 5881 5882 5883 5884 5885 5885 5886 5887 5888 5889 5889 5890 5890 5891 5891 5891 5892 5893 5893 5894 5894 5895 5894 5894 5894 5895 5895 5895 5896 5896
5878 5878 5878 5877 5877 5876 5876 5875 5875 5876 5877 5878 5880 5881 5882 5883 5884 5885 5886 5887 5888 5888 5889 5890 5890 5891 5891 5891 5891 5892 5892 5893 5894 5894 5895 5894 5894 5894 5894 5894 5895 5895 5895
5880 5880 5879 5879 5878 5878 5877 5876 5877 5877 5878 5879 5880 5882 5883 5884 5885 5886 5887 5888 5889 5889 5890 5890 5891 5891 5891 5891 5891 5892 5892 5893 5894 5894 5895 5894 5894 5894 5894 5894 5894 5894 5895
5882 5881 5881 5880 5880 5880 5879 5878 5879 5879 5879 5880 5882 5883 5884 5885 5886 5887 5888 5889 5889 5890 5890 5891 5891 5891 5892 5892 5892 5892 5893 5893 5893 5894 5894 5894 5894 5894 5894 5893 5893 5894 5894
5884 5883 5883 5882 5882 5881 5881 5880 5881 5881 5881 5882 5883 5884 5885 5886 5887 5888 5888 5889 5890 5890 5890 5891 5891 5891 5892 5892 5892 5892 5893 5893 5893 5893 5893 5893 5893 5893 5893 5893 5893 5893 5893
5886 5885 5884 5884 5883 5883 5883 5882 5882 5882 5882 5883 5884 5885 5886 5886 5887 5888 5889 5889 5890 5890 5891 5891 5891 5891 5892 5892 5892 5892 5893 5893 5893 5893 5893 5893 5892 5892 5892 5892 5891 5892 5892
5887 5887 5886 5886 5885 5885 5884 5884 5884 5884 5884 5885 5885 5886 5886 5887 5888 5888 5889 5889 5890 5890 5891 5891 5891 5891 5892 5892 5892 5892 5892 5892 5892 5892 5892 5892 5891 5891 5890 5890 5890 5890 5890
5889 5888 5888 5888 5887 5887 5887 5886 5886 5886 5886 5886 5886 5886 5887 5887 5888 5889 5889 5890 5890 5891 5891 5891 5892 5892 5892 5892 5892 5892 5892 5892 5892 5891 5891 5891 5890 5890 5889 5888 5887 5887 5888
5891 5890 5890 5889 5889 5888 5888 5888 5888 5887 5887 5887 5887 5887 5888 5888 5889 5890 5890 5890 5891 5891 5891 5892 5892 5892 5892 5892 5892 5892 5891 5891 5890 5890 5889 5889 5889 5888 5887 5885 5884 5884 5885
5893 5892 5891 5891 5890 5890 5890 5889 5889 5889 5888 5888 5888 5888 5888 5889 5889 5890 5890 5890 5891 5891 5891 5891 5891 5891 5891 5891 5891 5891 5890 5890 5889 5888 5888 5888 5887 5887 5886 5884 5882 5882 5883
5894 5894 5893 5892 5892 5892 5891 5891 5890 5890 5889 5889 5889 5888 5888 5889 5889 5889 5890 5890 5890 5890 5891 5891 5891 5891 5891 5891 5890 5890 5890 5889 5888 5887 5887 5887 5886 5885 5884 5883 5882 5882 5882
5896 5895 5895 5894 5894 5893 5892 5892 5891 5891 5890 5890 5889 5889 5889 5889 5889 5889 5889 5890 5890 5890 5890 5890 5890 5890 5890 5890 5890 5889 5888 5888 5887 5887 5886 5885 5885 5884 5883 5882 5881 5881 5881
5897 5897 5896 5896 5895 5894 5894 5893 5892 5892 5891 5891 5890 5890 5890 5890 5889 5889 5889 5889 5889 5889 5889 5889 5889 5889 5889 5889 5888 5888 5887 5887 5886 5885 5885 5884 5883 5882 5881 5880 5880 5879 5879
5899 5898 5898 5897 5896 5896 5895 5894 5894 5893 5892 5892 5891 5891 5890 5890 5889 5889 5889 5889 5889 5889 5888 5888 5888 5888 5888 5887 5887 5886 5886 5885 5884 5884 5883 5882 5881 5880 5879 5879 5878 5878 5877
5900 5899 5899 5898 5897 5896 5896 5895 5894 5894 5893 5892 5892 5891 5890 5890 5889 5889 5889 5888 5888 5888 5888 5887 5887 5887 5886 5886 5885 5885 5884 5883 5882 5882 5881 5880 5878 5878 5877 5877 5876 5875 5875
5900 5900 5899 5899 5898 5897 5896 5895 5895 5894 5893 5893 5892 5892 5891 5890 5889 5889 5889 5888 5888 5887 5887 5886 5885 5885 5885 5884 5883 5883 5882 5881 5880 5880 5879 5878 5877 5876 5875 5874 5874 5873 5872
5900 5900 5899 5899 5898 5898 5897 5896 5895 5895 5894 5893 5893 5892 5891 5890 5889 5889 5889 5888 5887 5887 5886 5885 5884 5883 5883 5882 5882 5881 5880 5880 5879 5878 5877 5876 5875 5874 5873 5872 5871 5870 5870
5900 5900 5899 5899 5898 5898 5897 5896 5896 5895 5894 5893 5893 5892 5891 5890 5889 5888 5888 5888 5887 5886 5885 5884 5883 5883 5882 5881 5880 5880 5879 5878 5877 5876 5875 5874 5873 5872 5870 5870 5869 5868 5867
5900 5900 5899 5899 5898 5898 5897 5896 5896 5895 5894 5893 5893 5892 5891 5890 5889 5888 5888 5887 5886 5886 5885 5883 5882 5881 5880 5879 5878 5877 5877 5876 5875 5874 5873 5872 5871 5869 5868 5867 5866 5865 5864
5899 5899 5899 5899 5898 5898 5897 5896 5895 5895 5894 5893 5892 5891 5890 5889 5889 5888 5887 5886 5885 5885 5884 5882 5881 5880 5879 5878 5877 5875 5874 5873 5872 5872 5871 5870 5868 5867 5866 5865 5863 5862 5861
5898 5898 5898 5898 5897 5897 5896 5895 5895 5894 5893 5892 5891 5891 5890 5888 5887 5887 5886 5885 5884 5883 5882 5880 5879 5878 5877 5876 5875 5874 5872 5871 5870 5869 5868 5867 5866 5865 5863 5862 5860 5859 5858